• Join FlightAware (Why Join?)
  • Login
  • US Flag 
04:38AM EST


 

Airport Tracker/Info


-or-


 

Live Flight TrackerFlight Track Log ✈ SWA1046 ✈ 30-Apr-2013 ✈ KDAL - KOKC

Flight Track Log - Related Links

Times and Time Zones

All times are in EDT time to prevent confusion due to time zone crossing. See the SWA1046 flight status page for this flight to view local times or setup timezone preferences in your user account.

Time Position Orientation Groundspeed Altitude Reporting Facility
EDT Latitude Longitude Course Direction KTS MPH feet Rate Location/Type
04:43PM 32.8333 -96.8333 90° East 150 173 1,500  Level Dallas / Fort Worth TRACON
04:43PM 32.8333 -96.8167 90° East 149 171 2,500 3,000 Climbing Dallas / Fort Worth TRACON
04:44PM 32.8167 -96.7667 112° Southeast 230 265 5,700 2,850 Climbing Dallas / Fort Worth TRACON
04:45PM 32.8833 -96.7667 360° North 295 339 8,200 2,859 Climbing Dallas / Fort Worth TRACON
04:47PM 33.0325 -96.8633 331° Northwest 382 440 13,800 3,106 Climbing Fort Worth Center
04:48PM 33.1206 -96.9175 333° Northwest 349 402 17,000 2,950 Climbing Fort Worth Center
04:49PM 33.2189 -96.9689 336° Northwest 354 407 19,700 2,800 Climbing Fort Worth Center
04:50PM 33.3192 -96.9883 351° North 384 442 22,600 3,025 Climbing Fort Worth Center
04:51PM 33.4381 -97.0128 350° North 396 456 25,800 2,200 Climbing Fort Worth Center
04:52PM 33.5361 -97.0297 352° North 391 450 27,000 605 Climbing Fort Worth Center
04:53PM 33.6617 -97.0517 352° North 391 450 27,000  Level Fort Worth Center
04:54PM 33.7575 -97.0711 350° North 391 450 27,000  Level Fort Worth Center
04:55PM 33.8767 -97.0958 350° North 391 450 27,000  Level Fort Worth Center
04:56PM 33.9853 -97.1178 350° North 391 450 27,000  Level Fort Worth Center
04:57PM 34.0981 -97.1375 352° North 391 450 27,000 -950 Level Fort Worth Center
04:58PM 34.2064 -97.1575 351° North 391 450 25,100 -2,050 Descending Fort Worth Center
04:59PM 34.3131 -97.1772 351° North 391 450 22,900 -2,150 Descending Fort Worth Center
05:00PM 34.4214 -97.1969 351° North 391 450 20,800 -2,050 Descending Fort Worth Center
05:01PM 34.5217 -97.2169 351° North 385 443 18,800 -2,100 Descending Fort Worth Center
05:02PM 34.6219 -97.2369 351° North 373 429 16,600 -2,050 Descending Fort Worth Center
05:03PM 34.7200 -97.2544 352° North 367 422 14,700 -1,875 Descending Fort Worth Center
05:03PM 34.7511 -97.2619 349° North 354 407 14,100 -1,900 Descending Fort Worth Center
05:04PM 34.8158 -97.2719 353° North 355 409 12,800 -1,860 Descending Fort Worth Center
05:05PM 34.9036 -97.3047 343° North 342 394 11,000 -1,179 Descending Fort Worth Center
05:06PM 34.9703 -97.3450 334° Northwest 318 366 10,600 -850 Descending Fort Worth Center
05:07PM 35.0642 -97.3781 344° North 312 359 9,300 -1,406 Descending Fort Worth Center
05:08PM 35.1456 -97.4008 347° North 301 346 7,600 -1,409 Descending Fort Worth Center
05:09PM 35.2206 -97.4111 354° North 301 346 6,600 -1,200 Descending Fort Worth Center
05:10PM 35.3039 -97.4339 347° North 305 351 5,300 -992 Descending Fort Worth Center
05:11PM 35.3792 -97.4619 343° North 285 328 4,600 -646 Descending Fort Worth Center
05:11PM 35.3792 -97.4619 343° North 291 335 4,600 -590 Level Fort Worth Center
05:12PM 35.4500 -97.4900 342° North 253 291 4,000 -600 Descending Fort Worth Center
05:12PM 35.4500 -97.4900 342° North 284 327 4,000 -655 Level Fort Worth Center
05:13PM 35.4894 -97.5308 320° Northwest 205 236 3,400 -736 Descending Fort Worth Center
05:14PM 35.4811 -97.5792 258° West 152 175 2,700 -609 Descending Fort Worth Center
05:15PM 35.4436 -97.5944 198° South 105 121 2,100 -627 Descending Fort Worth Center
05:16PM 35.4039 -97.5944 180° South 115 132 1,300 -800 Descending Fort Worth Center